User: anonymous   Login
Location: Unspecified
(0.0000°N, 0.0000°E)
Time: 00:07:02
(UTC+00:00)
Language:

SKYMED 3 - Orbit

View from above orbital plane
View from above orbital plane
View from above satellite
View from above satellite

Ground track
Ground track

The orbit data is extracted from the following two-line orbital elements,

1 33412U 08054A   18112.52812599 -.00000181  00000-0 -16122-4 0  9992
2 33412  97.8934 296.8570 0001597  98.1260 262.0149 14.82150155513476
Epoch (UTC): 22 April 2018 12:40:30
Eccentricity: 0.0001597
inclination: 97.8934°
perigee height: 621 km
apogee height: 623 km
right ascension of ascending node: 296.8570°
argument of perigee: 98.1260°
revolutions per day: 14.82150155
mean anomaly at epoch: 262.0149°
orbit number at epoch: 51347

The dashed part of the orbit path shows where the satellite is in the earth's shadow,  

DLR